TimeCET,TemperatureF,Dew PointF,Humidity,Sea Level PressureIn,VisibilityMPH,Wind Direction,Wind SpeedMPH,Gust SpeedMPH,PrecipitationIn,Events,Conditions,WindDirDegrees,DateUTC
12:00 AM,41.0,35.6,81,29.65,6.2,NE,4.6,-,N/A,,Unknown,50,2013-03-19 23:00:00
12:30 AM,42.8,35.6,76,29.65,6.2,NE,4.6,-,N/A,,Unknown,50,2013-03-19 23:30:00
1:00 AM,42.8,37.4,81,29.65,6.2,ENE,4.6,-,N/A,,Overcast,60,2013-03-20 00:00:00
1:30 AM,44.6,35.6,71,29.65,6.2,NE,4.6,-,N/A,,Mostly Cloudy,50,2013-03-20 00:30:00
2:00 AM,44.6,35.6,71,29.62,6.2,ENE,4.6,-,N/A,,Overcast,70,2013-03-20 01:00:00
2:30 AM,44.6,35.6,71,29.62,6.2,NE,3.5,-,N/A,,Unknown,50,2013-03-20 01:30:00
3:00 AM,46.4,35.6,66,29.62,6.2,ENE,4.6,-,N/A,,Unknown,70,2013-03-20 02:00:00
3:30 AM,46.4,35.6,66,29.59,6.2,ENE,5.8,-,N/A,,Mostly Cloudy,60,2013-03-20 02:30:00
4:00 AM,44.6,39.2,81,29.59,3.7,ENE,5.8,-,N/A,Rain,Light Rain,60,2013-03-20 03:00:00
4:30 AM,44.6,41.0,87,29.59,6.2,Variable,1.2,-,N/A,Rain,Light Rain,0,2013-03-20 03:30:00
5:00 AM,46.4,42.8,87,29.59,6.2,North,4.6,-,N/A,Rain,Light Rain,350,2013-03-20 04:00:00
5:30 AM,46.4,41.0,81,29.62,-9999.0,Variable,3.5,-,N/A,Rain,Light Rain,0,2013-03-20 04:30:00
6:00 AM,46.4,41.0,81,29.62,3.7,NW,4.6,-,N/A,Rain,Rain,310,2013-03-20 05:00:00
6:30 AM,46.4,41.0,81,29.62,6.2,North,4.6,-,N/A,Rain,Light Rain,10,2013-03-20 05:30:00
7:00 AM,44.6,41.0,87,29.62,6.2,Variable,2.3,-,N/A,Rain,Light Rain,0,2013-03-20 06:00:00
7:30 AM,44.6,41.0,87,29.65,3.7,Variable,2.3,-,N/A,Rain,Rain,0,2013-03-20 06:30:00
8:00 AM,44.6,41.0,87,29.65,5.0,Variable,3.5,-,N/A,Rain,Rain,0,2013-03-20 07:00:00
8:30 AM,44.6,41.0,87,29.68,6.2,ENE,4.6,-,N/A,Rain,Rain,70,2013-03-20 07:30:00
9:00 AM,44.6,42.8,93,29.68,6.2,ENE,6.9,-,N/A,Rain,Rain,60,2013-03-20 08:00:00
9:30 AM,46.4,42.8,87,29.71,6.2,North,6.9,-,N/A,Rain,Light Rain,10,2013-03-20 08:30:00
10:00 AM,46.4,42.8,87,29.71,6.2,North,11.5,-,N/A,Rain,Light Rain,350,2013-03-20 09:00:00
10:30 AM,48.2,44.6,87,29.71,6.2,North,5.8,-,N/A,Rain,Light Rain,350,2013-03-20 09:30:00
11:00 AM,50.0,44.6,82,29.71,6.2,NE,5.8,-,N/A,,Unknown,40,2013-03-20 10:00:00
11:30 AM,51.8,44.6,76,29.74,6.2,North,5.8,-,N/A,,Mostly Cloudy,360,2013-03-20 10:30:00
12:00 PM,53.6,44.6,72,29.74,6.2,NNW,6.9,-,N/A,,Mostly Cloudy,340,2013-03-20 11:00:00
12:30 PM,53.6,44.6,72,29.74,6.2,NNW,10.4,-,N/A,,Overcast,330,2013-03-20 11:30:00
1:00 PM,55.4,44.6,67,29.74,6.2,NW,11.5,-,N/A,,Mostly Cloudy,310,2013-03-20 12:00:00
1:30 PM,57.2,44.6,63,29.74,6.2,NW,10.4,-,N/A,,Mostly Cloudy,310,2013-03-20 12:30:00
2:00 PM,59.0,42.8,55,29.74,6.2,NNW,16.1,-,N/A,,Partly Cloudy,340,2013-03-20 13:00:00
2:30 PM,59.0,39.2,48,29.74,6.2,NNW,18.4,-,N/A,,Scattered Clouds,330,2013-03-20 13:30:00
3:00 PM,59.0,37.4,45,29.74,6.2,NNW,19.6,-,N/A,,Unknown,330,2013-03-20 14:00:00
3:30 PM,60.8,37.4,42,29.74,6.2,NW,17.3,-,N/A,,Scattered Clouds,320,2013-03-20 14:30:00
4:00 PM,59.0,37.4,45,29.74,6.2,NNW,16.1,-,N/A,,Scattered Clouds,340,2013-03-20 15:00:00
4:30 PM,59.0,35.6,42,29.77,6.2,NNW,18.4,-,N/A,,Unknown,330,2013-03-20 15:30:00
5:00 PM,60.8,32.0,34,29.77,6.2,NNW,18.4,-,N/A,,Unknown,330,2013-03-20 16:00:00
5:30 PM,59.0,32.0,36,29.80,6.2,NW,13.8,-,N/A,,Unknown,320,2013-03-20 16:30:00
6:00 PM,59.0,26.6,29,29.80,6.2,NNW,16.1,-,N/A,,Unknown,330,2013-03-20 17:00:00
6:30 PM,57.2,28.4,33,29.83,6.2,NNW,13.8,-,N/A,,Unknown,330,2013-03-20 17:30:00
7:00 PM,55.4,32.0,41,29.86,6.2,NW,9.2,-,N/A,,Unknown,320,2013-03-20 18:00:00
7:30 PM,53.6,30.2,41,29.86,6.2,NW,9.2,-,N/A,,Unknown,310,2013-03-20 18:30:00
8:00 PM,53.6,30.2,41,29.89,6.2,WNW,9.2,-,N/A,,Unknown,290,2013-03-20 19:00:00
8:30 PM,51.8,32.0,47,29.92,6.2,West,6.9,-,N/A,,Unknown,280,2013-03-20 19:30:00
9:00 PM,51.8,33.8,50,29.92,6.2,WNW,8.1,-,N/A,,Unknown,290,2013-03-20 20:00:00
9:30 PM,50.0,33.8,54,29.95,6.2,West,6.9,-,N/A,,Unknown,280,2013-03-20 20:30:00
10:00 PM,48.2,33.8,58,29.95,6.2,West,6.9,-,N/A,,Unknown,280,2013-03-20 21:00:00
10:30 PM,46.4,32.0,57,29.95,6.2,NNW,4.6,-,N/A,,Unknown,340,2013-03-20 21:30:00
11:00 PM,44.6,32.0,61,29.98,6.2,Calm,Calm,-,N/A,,Unknown,0,2013-03-20 22:00:00
11:30 PM,44.6,32.0,61,29.98,6.2,Calm,Calm,-,N/A,,Unknown,0,2013-03-20 22:30:00